Location: Unspecified
(0.0000°N, 0.0000°E)
Time: 03:47:05
(UTC+00:00)

Vanguard 3 - All Passes

Search period start: 23 October 2014 00:00
Search period end: 02 November 2014 00:00
Orbit: 508 x 3278 km, 33.3° (Epoch: 21 October)

Date Brightness Start Highest point End Pass type
(mag) Time Alt. Az. Time Alt. Az. Time Alt. Az.
23 Oct - 06:16:50 10° N 06:19:49 18° NE 06:23:38 10° E daylight
23 Oct - 08:26:04 10° WNW 08:31:27 60° SSW 08:41:00 10° SE daylight
23 Oct - 10:40:16 10° WSW 10:46:47 21° SSW 10:56:11 10° SSE daylight
23 Oct - 12:59:20 10° SSW 13:06:34 15° S 13:15:08 10° SSE daylight
23 Oct - 15:16:02 10° SSW 15:29:18 22° SSE 15:42:54 10° ESE daylight
23 Oct - 17:31:07 10° SW 17:49:58 46° SSE 18:04:31 10° E daylight
23 Oct - 19:48:14 10° WSW 20:07:10 80° NW 20:18:40 10° NE visible
23 Oct - 22:10:40 10° W 22:21:11 24° NW 22:28:17 10° N visible
24 Oct - 07:14:57 10° NW 07:19:25 68° NE 07:26:49 10° ESE daylight
24 Oct - 09:27:09 10° W 09:32:52 28° SSW 09:41:52 10° SSE daylight
24 Oct - 11:44:40 10° SW 11:50:27 14° S 11:57:36 10° SSE daylight
24 Oct - 14:02:28 10° SSW 14:12:12 17° SSE 14:23:11 10° SE daylight
24 Oct - 16:17:02 10° SSW 16:33:56 34° SSE 16:49:20 10° E daylight
24 Oct - 18:32:39 10° SW 18:52:44 74° SE 19:06:24 10° ENE visible
24 Oct - 20:52:13 10° WSW 21:08:10 45° NW 21:18:02 10° NNE visible
25 Oct - 06:04:41 10° NNW 06:07:59 24° NE 06:12:20 10° E daylight
25 Oct - 08:14:56 10° W 08:19:51 42° SSW 08:28:04 10° SE daylight
25 Oct - 10:30:18 10° SW 10:35:27 16° SSW 10:42:14 10° SSE daylight
25 Oct - 12:49:07 10° SSW 12:55:20 13° S 13:02:33 10° SSE daylight
25 Oct - 15:03:35 10° SSW 15:17:25 25° SSE 15:31:57 10° ESE daylight
25 Oct - 17:17:59 10° SW 17:37:26 54° SSE 17:52:58 10° ENE daylight
25 Oct - 19:35:16 10° WSW 19:54:31 70° NW 20:06:45 10° NE visible
25 Oct - 21:58:59 10° W 22:09:01 21° NW 22:16:08 10° N visible
26 Oct - 07:03:27 10° WNW 07:07:41 84° SW 07:14:30 10° SE daylight
26 Oct - 09:16:43 10° WSW 09:21:29 20° SSW 09:28:16 10° SSE daylight
26 Oct - 11:35:36 10° SSW 11:39:14 12° S 11:43:24 10° SSE daylight
26 Oct - 13:50:44 10° SSW 14:00:40 18° SSE 14:12:06 10° SE daylight
26 Oct - 16:04:09 10° SSW 16:21:33 39° SSE 16:37:57 10° E daylight
26 Oct - 18:19:34 10° SW 18:39:59 84° SE 18:54:31 10° ENE visible
26 Oct - 20:39:48 10° WSW 20:55:39 39° NW 21:05:58 10° NNE visible
27 Oct - 05:52:43 10° NNW 05:56:12 34° NE 06:00:48 10° ESE daylight
27 Oct - 08:04:01 10° W 08:08:23 28° SSW 08:15:01 10° SSE daylight
27 Oct - 10:21:17 10° SSW 10:24:12 12° S 10:27:35 10° S daylight
27 Oct - 12:38:36 10° S 12:44:04 13° SSE 12:50:21 10° SSE daylight
27 Oct - 14:51:03 10° SSW 15:05:20 28° SSE 15:20:49 10° ESE daylight
27 Oct - 17:04:58 10° SW 17:24:42 62° SE 17:41:10 10° ENE daylight
27 Oct - 19:22:28 10° WSW 19:41:45 61° NW 19:54:41 10° NE visible
27 Oct - 21:47:31 10° WNW 21:56:55 19° NW 22:03:54 10° N visible
28 Oct - 04:43:47 10° NNE 04:44:40 11° NE 04:45:36 10° NE visible
28 Oct - 06:52:07 10° WNW 06:56:05 54° SSW 07:02:05 10° SE daylight
28 Oct - 09:06:55 10° SW 09:10:11 14° SSW 09:14:15 10° SSE daylight
28 Oct - 13:38:44 10° SSW 13:48:59 19° SSE 14:01:04 10° ESE daylight
28 Oct - 15:51:18 10° SW 16:08:57 45° SSE 16:26:19 10° E daylight
28 Oct - 18:06:38 10° SW 18:27:06 86° NW 18:42:28 10° NE visible
28 Oct - 20:27:35 10° W 20:43:08 34° NW 20:53:48 10° NNE visible
29 Oct - 05:40:54 10° NW 05:44:29 53° NE 05:49:06 10° ESE daylight
29 Oct - 07:53:28 10° WSW 07:57:00 19° SSW 08:01:46 10° SSE daylight
29 Oct - 12:27:36 10° S 12:32:45 12° SSE 12:38:40 10° SE daylight
29 Oct - 14:38:30 10° SSW 14:53:03 31° SSE 15:09:26 10° E daylight
29 Oct - 16:52:04 10° SW 17:11:48 70° SE 17:29:10 10° ENE daylight
29 Oct - 19:09:51 10° WSW 19:28:56 54° NW 19:42:30 10° NE visible
29 Oct - 21:36:17 10° WNW 21:44:54 17° NW 21:51:37 10° N visible
30 Oct - 04:30:33 10° N 04:33:00 17° NE 04:35:32 10° ENE visible
30 Oct - 06:40:59 10° W 06:44:34 33° SSW 06:49:32 10° SE daylight
30 Oct - 13:26:33 10° SSW 13:37:08 21° SSE 13:49:57 10° ESE daylight
30 Oct - 15:38:33 10° SW 15:56:11 51° SE 16:14:26 10° ENE daylight
30 Oct - 17:53:52 10° WSW 18:14:06 77° NW 18:30:15 10° NE visible
30 Oct - 20:15:35 10° W 20:30:40 30° NW 20:41:34 10° NNE visible
31 Oct - 05:29:13 10° NW 05:32:51 89° NE 05:37:15 10° SE daylight
31 Oct - 07:43:45 10° SW 07:45:39 12° SSW 07:47:51 10° S daylight
31 Oct - 12:16:04 10° S 12:21:20 13° SSE 12:27:26 10° SE daylight
31 Oct - 14:25:57 10° SSW 14:40:34 35° SSE 14:57:47 10° E daylight
31 Oct - 16:39:18 10° SW 16:58:47 80° SE 17:16:57 10° ENE daylight
31 Oct - 18:57:26 10° WSW 19:16:06 47° NW 19:30:12 10° NNE visible
31 Oct - 21:25:14 10° WNW 21:33:01 15° NNW 21:39:19 10° N visible
01 Nov - 04:18:06 10° NNW 04:21:23 27° NE 04:24:35 10° E visible
01 Nov - 06:30:07 10° WSW 06:33:06 21° SSW 06:36:48 10° SSE daylight
01 Nov - 13:14:16 10° SSW 13:25:06 23° SSE 13:38:41 10° ESE daylight
01 Nov - 15:25:54 10° SW 15:43:17 58° SE 16:02:18 10° ENE daylight
01 Nov - 17:41:16 10° WSW 18:01:04 68° NW 18:17:53 10° NE visible
01 Nov - 20:03:48 10° W 20:18:18 27° NW 20:29:16 10° NNE visible
